Location: Bauersach School (historical)
(38.0926°N, 89.4806°W)
Time: 02:55:50
(UTC+00:00)

NOSS 2-3 (C) - Pass Details

Date: 11 December 2025
Orbit: 458 x 1718 km, 63.3° (Epoch: 15 January)

Event Time Altitude Azimuth Distance (km) Brightness Sun altitude
Rises 23:38:16 0° 219° (SW) 2,589 7.9 -11.5°
Reaches altitude 10° 23:40:29 10° 222° (SW) 1,641 6.8 -11.9°
Maximum altitude 23:43:57 62° 304° (NW) 520 3.3 -12.6°
Enters shadow 23:46:58 13° 25° (NNE) 1,443 5.1 -13.1°
